Regional Weather Roundup
Issued by NWS Raleigh/Durham, NC

Home | Current Version | Previous Version | Text Only | Print | Product List | Glossary On
Versions: 1 2 3 4 5 6 7 8 9 10 11 12 13 14 15 16 17 18 19 20 21 22 23 24 25 26 27 28 29 30 31 32 33 34 35 36 37 38 39 40 41 42 43 44 45 46 47 48 49 50
000
ASUS42 KRAH 271610
RWRRAH
NORTH CAROLINA WEATHER ROUNDUP
NATIONAL WEATHER SERVICE RALEIGH NC
1200 PM EDT WED MAY 27 2015

NOTE: "FAIR" INDICATES FEW OR NO CLOUDS BELOW 12,000 FEET WITH NO
SIGNIFICANT WEATHER AND/OR OBSTRUCTIONS TO VISIBILITY.

NCZ001-053-055-056-065-067-271700-
WESTERN NORTH CAROLINA

CITY           SKY/WX    TMP DP  RH WIND       PRES   REMARKS
ASHEVILLE      MOSUNNY   74  60  61 S6        30.28F
JEFFERSON      PTSUNNY   71  59  64 SE6       30.31S
MORGANTON      CLOUDY    71  64  77 CALM      30.32F
HICKORY        CLOUDY    71  63  75 S6        30.28S
RUTHERFORDTON  CLOUDY    72  65  80 SW3       30.28F
MOUNT AIRY     CLOUDY    72  66  81 SW3       30.29S
BOONE          SUNNY     74  61  64 S10       30.32S
$$

NCZ021-022-025-041-071-084-088-271700-
CENTRAL NORTH CAROLINA

CITY           SKY/WX    TMP DP  RH WIND       PRES   REMARKS
CHARLOTTE      PTSUNNY   73  64  73 SW8       30.27F
GREENSBORO     PTSUNNY   78  63  59 SW12      30.25S
WINSTON-SALEM  CLOUDY    73  63  70 SW8       30.28R
RALEIGH-DURHAM PTSUNNY   82  68  62 SW13      30.25F
FORT BRAGG     PTSUNNY   82  66  57 SW5       30.24S
FAYETTEVILLE   MOSUNNY   83  67  58 W14G20    30.25S
BURLINGTON     MOSUNNY   82  65  56 SW8       30.24F
LAURINBURG     PTSUNNY   83  66  56 W10       30.26S
$$

NCZ011-015-027-028-043-044-047-080-103-271700-
NORTHEASTERN NORTH CAROLINA

CITY           SKY/WX    TMP DP  RH WIND       PRES   REMARKS
ROCKY MT-WILSO MOSUNNY   84  70  62 S10       30.25F
GREENVILLE     SUNNY     82  72  69 S10       30.26F
WASHINGTON     SUNNY     82  70  67 S6        30.27S
ELIZABETH CITY MOSUNNY   81  71  71 S10       30.26F
MANTEO         SUNNY     78  67  67 S15       30.29S
CAPE HATTERAS  CLOUDY    78  63  59 S10       30.31S
$$

NCZ078-087-090-091-093-098-101-271700-
SOUTHEASTERN NORTH CAROLINA

CITY           SKY/WX    TMP DP  RH WIND       PRES   REMARKS
LUMBERTON      PTSUNNY   86  68  54 VRB5      30.25F
GOLDSBORO      PTSUNNY   83  70  65 SW12      30.23F
KINSTON        MOSUNNY   84  70  61 W7        30.26F
KENANSVILLE    MOSUNNY   83  68  59 SW3       30.27F
NEW BERN       PTSUNNY   83  68  60 SE10      30.28F
CHERRY POINT   PTSUNNY   80  67  64 S12       30.29F
BEAUFORT       CLOUDY    77  67  71 S9        30.29F
JACKSONVILLE   MOSUNNY   83  68  60 SE14      30.27S
WILMINGTON     PTSUNNY   81  67  62 S8        30.26F
$$



USA.gov is the U.S. government's official web portal to all federal, state and local government web resources and services.